Beale Air Force Base, CA

11:44 AM PDT on July 25, 2016 (GMT -0700)
Beale Air Force Base

Weather History for KBAB - September, 2013

Change the Weather History Date:

Thursday, September 12, 2013

  Actual Average Record
Temperature  
Mean Temperature 72 °F -  
Max Temperature 87 °F 87 °F 100 °F (2014)
Min Temperature 57 °F 58 °F 50 °F (2005)
Cooling Degree Days 7    
Growing Degree Days 22 (Base 50)    
Moisture  
Dew Point 57 °F    
Average Humidity 62    
Maximum Humidity 88    
Minimum Humidity 29    
Precipitation  
Precipitation 0.00 in - - ()
Sea Level Pressure  
Sea Level Pressure 29.89 in    
Wind  
Wind Speed 5 mph (South)    
Max Wind Speed 8 mph    
Max Gust Speed -    
Visibility 10 miles    
Events      
Averages and records for this station are not official NWS values.
T = Trace of Precipitation, MM = Missing Value Source: NWS Daily Summary

Daily Weather History Graph

Daily Weather History Graph

Search for Another Location

Airport or City:

Trip Planner

Search our weather history database for the weather conditions in past years. The results will help you decide how hot, cold, wet, or windy it might be!

Date:

Astronomy

Sep. 12, 2013 Rise Set
Actual Time 6:44 AM PDT 7:18 PM PDT
Civil Twilight 6:17 AM PDT 7:45 PM PDT
Nautical Twilight 5:45 AM PDT 8:16 PM PDT
Astronomical Twilight 5:13 AM PDT 8:49 PM PDT
Moon 2:14 PM PDT (9/12) No Moon Set
Length of Visible Light 13h 27m
Length of Day
12h 33m
Waxing Crescent, 51% of the Moon is Illuminated
Sep 12
Waxing Crescent
Sep 19
Full
Sep 26
Last Quarter
Oct 4
New
Oct 11
First Quarter

Hourly Weather History & Observations

Time (PDT) Temp. Heat Index Dew Point Humidity Pressure Visibility Wind Dir Wind Speed Gust Speed Precip Events Conditions
12:56 AM 62.6 °F - 57.2 °F 82% 29.91 in 10.0 mi SSE 8.1 mph - N/A   Clear
1:56 AM 60.8 °F - 57.2 °F 88% 29.91 in 10.0 mi SE 6.9 mph - N/A   Clear
2:56 AM 60.8 °F - 55.4 °F 82% 29.92 in 10.0 mi SW 2.3 mph - N/A   Clear
3:56 AM 60.8 °F - 57.2 °F 88% 29.92 in 10.0 mi South 5.8 mph - N/A   Clear
4:56 AM 60.8 °F - 55.4 °F 82% 29.92 in 10.0 mi East 4.6 mph - N/A   Clear
5:56 AM 60.8 °F - 55.4 °F 82% 29.93 in 10.0 mi ENE 2.3 mph - N/A   Clear
6:56 AM 57.2 °F - 53.6 °F 88% 29.94 in 10.0 mi Calm Calm - N/A   Clear
7:56 AM 62.6 °F - 55.4 °F 77% 29.95 in 10.0 mi North 2.3 mph - N/A   Clear
8:56 AM 66.2 °F - 57.2 °F 73% 29.96 in 10.0 mi Calm Calm - N/A   Clear
9:56 AM 71.6 °F - 57.2 °F 60% 29.95 in 10.0 mi Variable 4.6 mph - N/A   Clear
10:56 AM 73.4 °F - 59.0 °F 61% 29.94 in 10.0 mi Variable 3.5 mph - N/A   Clear
11:56 AM 77.0 °F - 59.0 °F 54% 29.93 in 10.0 mi Variable 4.6 mph - N/A   Clear
12:56 PM 80.6 °F 81.1 °F 59.0 °F 48% 29.91 in 10.0 mi WNW 5.8 mph - N/A   Clear
1:56 PM 84.2 °F 83.8 °F 59.0 °F 42% 29.88 in 10.0 mi SSW 5.8 mph - N/A   Clear
2:56 PM 84.2 °F 83.5 °F 57.2 °F 40% 29.85 in 10.0 mi Variable 5.8 mph - N/A   Clear
3:56 PM 87.8 °F 86.5 °F 57.2 °F 35% 29.84 in 10.0 mi WSW 5.8 mph - N/A   Clear
4:56 PM 86.0 °F 84.9 °F 57.2 °F 37% 29.82 in 10.0 mi South 2.3 mph - N/A   Clear
5:56 PM 87.8 °F - 51.8 °F 29% 29.81 in 10.0 mi SSW 5.8 mph - N/A   Clear
6:56 PM 82.4 °F 82.0 °F 57.2 °F 42% 29.81 in 10.0 mi SSW 5.8 mph - N/A   Clear
7:56 PM 77.0 °F - 57.2 °F 50% 29.81 in 10.0 mi SSE 3.5 mph - N/A   Clear
8:56 PM 77.0 °F - 53.6 °F 44% 29.82 in 10.0 mi ESE 3.5 mph - N/A   Clear
9:56 PM 69.8 °F - 59.0 °F 68% 29.83 in 10.0 mi South 2.3 mph - N/A   Clear
10:56 PM 69.8 °F - 57.2 °F 64% 29.84 in 10.0 mi South 3.5 mph - N/A   Partly Cloudy
11:56 PM 69.8 °F - 57.2 °F 64% 29.85 in 10.0 mi Calm Calm - N/A   Clear